TimeEST,TemperatureF,Dew PointF,Humidity,Sea Level PressureIn,VisibilityMPH,Wind Direction,Wind SpeedMPH,Gust SpeedMPH,PrecipitationIn,Events,Conditions,WindDirDegrees,DateUTC
12:55 AM,10.9,5.0,77,30.28,10.0,Calm,Calm,-,N/A,,Mostly Cloudy,0,2014-02-04 05:55:00
1:02 AM,10.9,5.0,77,30.24,10.0,Calm,Calm,-,N/A,,Scattered Clouds,0,2014-02-04 06:02:00
1:55 AM,10.0,5.0,80,30.29,10.0,Calm,Calm,-,N/A,,Mostly Cloudy,0,2014-02-04 06:55:00
2:55 AM,7.0,3.0,84,30.30,10.0,Calm,Calm,-,N/A,,Scattered Clouds,0,2014-02-04 07:55:00
3:55 AM,7.0,1.9,80,30.31,10.0,Calm,Calm,-,N/A,,Scattered Clouds,0,2014-02-04 08:55:00
4:19 AM,7.0,3.0,84,30.27,10.0,Calm,Calm,-,N/A,,Mostly Cloudy,0,2014-02-04 09:19:00
4:55 AM,8.1,3.9,83,30.33,10.0,SSE,3.5,-,N/A,,Overcast,160,2014-02-04 09:55:00
5:27 AM,9.0,5.0,84,30.30,10.0,Calm,Calm,-,N/A,,Overcast,0,2014-02-04 10:27:00
5:39 AM,7.0,3.9,87,30.30,10.0,Calm,Calm,-,N/A,,Overcast,0,2014-02-04 10:39:00
5:55 AM,8.1,3.9,83,30.34,10.0,Calm,Calm,-,N/A,,Overcast,0,2014-02-04 10:55:00
6:10 AM,9.0,3.9,80,30.30,10.0,Calm,Calm,-,N/A,,Overcast,0,2014-02-04 11:10:00
6:42 AM,8.1,3.9,83,30.31,9.0,Calm,Calm,-,N/A,,Overcast,0,2014-02-04 11:42:00
6:55 AM,9.0,5.0,84,30.36,8.0,NW,3.5,-,N/A,,Overcast,320,2014-02-04 11:55:00
7:55 AM,6.1,1.9,83,30.38,9.0,Calm,Calm,-,N/A,,Scattered Clouds,0,2014-02-04 12:55:00
8:55 AM,6.1,3.0,87,30.40,7.0,Calm,Calm,-,N/A,,Overcast,0,2014-02-04 13:55:00
9:55 AM,12.0,10.0,92,30.41,8.0,Calm,Calm,-,N/A,,Overcast,0,2014-02-04 14:55:00
10:55 AM,15.1,10.0,80,30.42,7.0,Calm,Calm,-,N/A,,Overcast,0,2014-02-04 15:55:00
11:55 AM,19.9,6.1,55,30.41,10.0,NNE,6.9,-,N/A,,Overcast,20,2014-02-04 16:55:00
12:55 PM,19.9,6.1,55,30.41,10.0,NW,3.5,-,N/A,,Overcast,310,2014-02-04 17:55:00
1:55 PM,19.9,6.1,55,30.40,10.0,West,5.8,-,N/A,,Overcast,280,2014-02-04 18:55:00
2:55 PM,19.0,5.0,54,30.40,10.0,NW,8.1,-,N/A,,Mostly Cloudy,310,2014-02-04 19:55:00
3:55 PM,19.0,6.1,57,30.39,10.0,NW,5.8,-,N/A,,Mostly Cloudy,310,2014-02-04 20:55:00
4:55 PM,18.0,5.0,57,30.39,10.0,WNW,5.8,-,N/A,,Overcast,300,2014-02-04 21:55:00
5:55 PM,14.0,3.9,64,30.40,10.0,NW,4.6,-,N/A,,Clear,320,2014-02-04 22:55:00
6:55 PM,12.0,3.0,67,30.41,10.0,NW,3.5,-,N/A,,Clear,310,2014-02-04 23:55:00
7:55 PM,8.1,1.0,73,30.42,10.0,Calm,Calm,-,N/A,,Clear,0,2014-02-05 00:55:00
8:55 PM,10.0,3.0,73,30.41,10.0,NW,4.6,-,N/A,,Clear,320,2014-02-05 01:55:00
9:55 PM,8.1,1.0,73,30.40,10.0,Calm,Calm,-,N/A,,Clear,0,2014-02-05 02:55:00
10:55 PM,10.9,1.0,64,30.38,10.0,North,4.6,-,N/A,,Clear,10,2014-02-05 03:55:00
11:55 PM,10.0,-0.0,64,30.38,10.0,North,3.5,-,N/A,,Clear,10,2014-02-05 04:55:00